FW2611 Weather Reports


Display with metric or nautical units.
time (UTC)temp
F
wind
direction
speed
MPH
gust
MPH
rain 1hr
in
rain 24hr
in
rain mn
in
humidity
%
barometer
mb
20260906014529 77 165 1.0 4.0 0.00 0.06 0.06 66 1012.3
20260906013052 77 149 1.0 3.0 0.00 0.06 0.06 66 1012.3
20260906011539 77 149 0.0 5.0 0.00 0.06 0.06 67 1012.3
20260906010018 76 133 2.0 5.0 0.00 0.06 0.06 68 1012.2
20260906004527 76 117 3.0 7.0 0.00 0.06 0.06 68 1012.2
20260906003027 77 127 2.0 8.0 0.00 0.06 0.06 67 1011.9
20260906001532 77 123 3.0 8.0 0.00 0.06 0.06 67 1011.7
20260906000031 77 138 4.0 9.0 0.00 0.06 0.06 67 1011.5
20260905234523 77 105 3.0 9.0 0.00 0.06 0.06 67 1011.3
20260905233035 77 136 2.0 10.0 0.00 0.06 0.06 67 1011.3
20260905231531 78 111 6.0 10.0 0.00 0.06 0.06 65 1011.1
20260905230037 80 105 4.0 10.0 0.00 0.06 0.06 63 1011.2
20260905224534 81 85 9.0 15.0 0.00 0.06 0.06 61 1011.2
20260905223023 82 76 9.0 13.0 0.00 0.06 0.06 59 1010.9
20260905221506 83 98 7.0 13.0 0.00 0.06 0.06 56 1010.8
20260905220011 83 346 10.0 17.0 0.00 0.06 0.06 44 1010.3
20260905214515 83 47 6.0 15.0 0.00 0.06 0.06 44 1010.4
20260905213022 84 340 8.0 12.0 0.00 0.06 0.06 45 1010.3
20260905211523 84 9 8.0 15.0 0.00 0.06 0.06 43 1010.3
20260905210004 84 339 7.0 15.0 0.00 0.06 0.06 43 1010.2
20260905204512 84 5 9.0 14.0 0.00 0.06 0.06 43 1010.3
20260905203020 84 360 11.0 16.0 0.00 0.06 0.06 43 1010.2
20260905201521 83 352 8.0 16.0 0.00 0.06 0.06 46 1010.2
20260905200030 83 306 8.0 12.0 0.00 0.06 0.06 46 1010.3
20260905194508 82 296 4.0 12.0 0.00 0.06 0.06 50 1010.6
20260905193010 82 309 4.0 15.0 0.00 0.06 0.06 49 1010.7
20260905191521 82 301 4.0 13.0 0.00 0.06 0.06 50 1010.7
20260905190024 83 338 6.0 11.0 0.00 0.06 0.06 48 1010.8
20260905184527 83 335 5.0 11.0 0.00 0.06 0.06 48 1011.0
20260905183009 84 17 7.0 13.0 0.00 0.06 0.06 47 1011.0
20260905181519 83 292 5.0 10.0 0.00 0.06 0.06 50 1011.1
20260905180022 82 306 5.0 13.0 0.00 0.06 0.06 52 1011.4
20260905174534 82 23 7.0 14.0 0.00 0.06 0.06 48 1011.3
20260905173031 82 278 5.0 11.0 0.00 0.06 0.06 52 1011.4
20260905171524 82 21 6.0 12.0 0.00 0.06 0.06 54 1011.4
20260905170022 81 311 6.0 11.0 0.00 0.06 0.06 55 1011.5
20260905164525 81 32 5.0 12.0 0.00 0.06 0.06 55 1011.5
20260905163034 80 19 4.0 11.0 0.00 0.06 0.06 57 1011.7
20260905161533 79 311 4.0 12.0 0.00 0.06 0.06 61 1011.7
20260905160015 77 328 4.0 10.0 0.00 0.06 0.06 63 1012.0
20260905154518 77 335 7.0 10.0 0.00 0.06 0.06 62 1012.0
20260905153028 77 311 5.0 12.0 0.00 0.06 0.06 63 1012.2
20260905151531 77 329 7.0 13.0 0.00 0.06 0.06 61 1012.0
20260905150040 77 341 6.0 12.0 0.00 0.06 0.06 62 1012.0
20260905144536 77 340 7.0 13.0 0.00 0.06 0.06 61 1011.7
20260905143023 77 21 8.0 15.0 0.00 0.06 0.06 60 1011.6
20260905141505 77 341 5.0 12.0 0.00 0.06 0.06 64 1011.6
20260905140011 76 338 7.0 15.0 0.00 0.06 0.06 65 1011.5
20260905134516 75 13 9.0 13.0 0.00 0.06 0.06 67 1011.4
20260905133017 75 331 7.0 14.0 0.00 0.06 0.06 69 1011.4
20260905131535 75 330 8.0 15.0 0.00 0.06 0.06 69 1011.4
20260905130007 74 332 11.0 17.0 0.00 0.06 0.06 69 1011.4
20260905124510 74 5 8.0 15.0 0.00 0.06 0.06 73 1011.3
20260905123014 73 9 10.0 16.0 0.00 0.06 0.06 71 1011.4
20260905121520 73 5 7.0 16.0 0.00 0.06 0.06 72 1011.5
20260905120034 73 20 8.0 16.0 0.00 0.06 0.06 73 1011.2
20260905114515 72 352 9.0 14.0 0.00 0.06 0.06 75 1011.2
20260905113012 72 347 5.0 11.0 0.00 0.06 0.06 78 1011.3
20260905111521 72 343 6.0 12.0 0.00 0.06 0.06 79 1011.1
20260905110025 72 347 7.0 14.0 0.00 0.06 0.06 80 1010.9
20260905104530 72 10 7.0 11.0 0.00 0.06 0.06 81 1010.7
20260905103013 72 12 7.0 10.0 0.00 0.06 0.06 81 1010.4
20260905101518 72 360 4.0 10.0 0.00 0.06 0.06 82 1010.3
20260905100026 72 28 5.0 14.0 0.00 0.06 0.06 81 1010.3
20260905094552 72 323 6.0 11.0 0.00 0.06 0.06 83 1010.3
20260905093031 72 348 3.0 6.0 0.00 0.06 0.06 84 1010.2
20260905091514 72 322 2.0 6.0 0.00 0.06 0.06 86 1010.2
20260905091008 73 329 2.0 5.0 0.00 0.06 0.06 87 1010.4
20260905090958 73 9 0.0 0.0 0.00 0.06 0.06 88 1010.3
20260905083029 72 46 0.0 0.0 0.00 0.06 0.06 89 1010.2
20260905081530 72 46 0.0 0.0 0.00 0.06 0.06 88 1010.2
20260905080016 72 46 0.0 0.0 0.00 0.06 0.06 87 1010.2
20260905074523 73 47 0.0 0.0 0.00 0.06 0.06 87 1010.2
20260905073026 73 40 3.0 10.0 0.01 0.18 0.06 89 1010.3
20260905071534 73 16 7.0 11.0 0.06 0.50 0.06 89 1010.4
20260905070031 74 360 4.0 7.0 0.06 0.50 0.06 89 1010.5
20260905064518 74 304 1.0 4.0 0.06 0.50 0.06 89 1011.0
20260905063024 74 332 3.0 9.0 0.05 0.49 0.05 88 1011.3
20260905061535 75 308 5.0 11.0 0.00 0.44 0.00 87 1011.4
20260905060051 75 348 3.0 10.0 0.00 0.47 0.00 87 1011.4
20260905054540 75 311 5.0 13.0 0.00 0.47 0.00 86 1011.4
20260905053020 75 292 7.0 13.0 0.00 0.47 0.00 85 1011.6
20260905051535 76 306 6.0 14.0 0.00 0.47 0.00 85 1011.7
20260905050007 77 323 10.0 16.0 0.00 0.47 0.00 83 1011.8
20260905044516 79 257 4.0 13.0 0.00 0.47 0.00 81 1011.5
20260905043019 79 290 2.0 6.0 0.00 0.47 0.00 80 1011.3
20260905041527 80 295 2.0 5.0 0.00 0.47 0.00 79 1011.4
20260905040026 80 292 2.0 6.0 0.00 0.47 0.00 78 1011.5
20260905034513 80 266 1.0 6.0 0.00 0.47 0.47 77 1011.6
20260905033014 80 269 0.0 4.0 0.00 0.47 0.47 77 1011.7
20260905031533 80 280 2.0 5.0 0.00 0.47 0.47 77 1011.9
20260905030026 80 261 3.0 7.0 0.00 0.47 0.47 76 1011.9
20260905024552 80 295 3.0 6.0 0.00 0.47 0.47 75 1011.8
20260905023017 80 271 1.0 7.0 0.00 0.47 0.47 74 1011.7
20260905021518 80 244 1.0 4.0 0.00 0.47 0.47 74 1011.7
20260905020023 80 261 1.0 6.0 0.00 0.47 0.47 74 1011.7